Showing default

SPARK 1, 41900

Orbit data source: Space-Track

SPARK 1, 41900 is a payload satellite owned by SECM (CN) in SSO that was launched on Wed, 21 Dec 2016 UTC via a CHANG ZHENG 2D launch vehicle from the Jiuquan Satellite Launch Center, China (JSC). Payload-class satellites include a variety of spacecraft equipped with specific instruments for various scientific and technological missions. These include communications satellites like Starlink; space stations such as the ISS; scientific satellites like the Hubble; Earth observation satellites from companies like Planet Labs, Umbra, and HawkEye 360; GPS; miniature CubeSats for education and research; and military/defense satellites.

Loading next visibility...
Identifier
41900, 2016-081C
Orbit
SSO
Country
Flag of CNCN / PRC
Related business
Manufacturer
SECM
Mission
Operational Civil Imaging
Bus & Motor
SPARK, Unknown motor
Mass
43 kg wet, 43 kg dry
Launch date (UTC)
2016-12-21 (9 years ago)
Launch vehicle
CHANG ZHENG 2D
Launch site
Jiuquan Satellite Launch Center, China (JSC)
Object type
Payload
Rocket body
Debris
Shape & HBR
Box + 2 Pan, 0.5 m
Radar Cross Section
0.388 m², Medium (>0.1 m² and < 1m²)

Expand to show TLE details & history
Last TLE update: 1 day ago

TLE from 1 day ago
0 SPARK 1
1 41900U 16081C   25259.95928144  .00000679  00000-0  15369-3 0  9994
2 41900  98.5259 241.5026 0025236  83.8672 276.5401 14.59288040464411
Epoch: 2025-09-16T23:01Z
TLE epoch observation values (Epoch: 2025-09-16T23:01:21.916Z)
Latitude
-0.00001°
Longitude
-99.98082°
Altitude
696.459 km
Speed
7.509 km/s
True Right ascension
16h 06m 00s
True Declination
0° 00' 00"
Sunlit
Object was in daylight at epoch
Visualization orbit readout
Latitude
Unknown
Longitude
Unknown
Altitude
Unknown
Speed
Unknown
Apparent Right ascension
Unknown
Apparent Declination
Unknown
Sunlit
N/A
Visualization observer readout
Local Sidereal Time
17:43:41
Azimuth
Unknown
Elevation
Unknown
Doppler factor
Unknown
Orbital elements
Apogee altitude
710.415 km
Perigee altitude
674.728 km
Semi-major axis
7,070.708 km
Eccentricity
0.00252
Inclination
98.5259°
RAAN
241.5026°
Arg. of periapsis
83.8672°
True anomaly
276.2527°
Mean anomaly
276.5401°
Eccentric anomaly
276.39641°
Mean motion
3.65047 °/min
Orbital period
98.62 mins
BSTAR
0.00015369
Loading maneuver chart data...
Computing Atmospheric mass density...
Loading historical data...
Loading historical data...
Loading historical data...
Loading historical data...
Loading historical data...
Loading historical data...
Loading historical data...
Other satellites on launch #81 in the year 2016 (2016-12-21 UTC)

Documentation

Showing up to 5 results
|